Location: Recife
(8.0585°S, 34.8848°W)
Time: 10:07:10
(UTC-03:00)

Transit 2A - Pass Details

Date: 21 April 2026
Orbit: 594 x 950 km, 66.7° (Epoch: 14 May)

Event Time Altitude Azimuth Distance (km) Brightness Sun altitude
Rises 07:15:01 0° 348° (NNW) 2,907 9.1 26.3°
Reaches altitude 10° 07:17:22 10° 352° (N) 1,970 8.3 26.9°
Maximum altitude 07:21:39 55° 70° (ENE) 721 7.3 27.9°
Drops below altitude 10° 07:25:51 10° 148° (SSE) 1,928 8.3 28.9°
Sets 07:28:07 0° 152° (SSE) 2,840 9.1 29.4°
